Havre, MT

6:24 PM MDT on March 25, 2017 (GMT -0600)
Havre City-County

Weather History for KHVR - May, 2013

Change the Weather History Date:

Tuesday, May 21, 2013

  Actual Average Record
Temperature  
Mean Temperature 52 °F 56 °F  
Max Temperature 71 °F 69 °F 98 °F (1980)
Min Temperature 33 °F 43 °F 27 °F (1969)
Degree Days  
Heating Degree Days 13 10  
Month to date heating degree days 222 269  
Since 1 July heating degree days 7824 8006  
Cooling Degree Days 0 0  
Month to date cooling degree days 7 0  
Year to date cooling degree days 7 1  
Growing Degree Days 2 (Base 50)    
Moisture  
Dew Point 30 °F    
Average Humidity 51    
Maximum Humidity 85    
Minimum Humidity 16    
Precipitation  
Precipitation 0.00 in 0.06 in 1.03 in (1962)
Month to date precipitation 0.51 1.06  
Year to date precipitation 3.23 3.05  
Snow  
Snow 0.00 in 0.00 in T in (1993)
Month to date snowfall 0.0 1.2  
Since 1 July snowfall 50.6 38.4  
Snow Depth 0.00 in    
Sea Level Pressure  
Sea Level Pressure 30.00 in    
Wind  
Wind Speed 13 mph (East)    
Max Wind Speed 25 mph    
Max Gust Speed 35 mph    
Visibility 10 miles    
Events      
T = Trace of Precipitation, MM = Missing Value Source: NWS Daily Summary

Daily Weather History Graph

Daily Weather History Graph

Search for Another Location

Airport or City:

Trip Planner

Search our weather history database for the weather conditions in past years. The results will help you decide how hot, cold, wet, or windy it might be!

Date:

Astronomy

May. 21, 2013 Rise Set
Actual Time 5:30 AM MDT 9:01 PM MDT
Civil Twilight 4:52 AM MDT 9:40 PM MDT
Nautical Twilight 4:00 AM MDT 10:32 PM MDT
Astronomical Twilight 2:50 AM MDT 11:43 PM MDT
Moon 5:02 PM MDT (5/21) 3:20 AM MDT (5/21)
Length of Visible Light 16h 48m
Length of Day
15h 30m
Waxing Gibbous, 84% of the Moon is Illuminated
May 21
Waxing Gibbous
May 24
Full
May 31
Last Quarter
Jun 8
New
Jun 16
First Quarter

Hourly Weather History & Observations

Time (MDT) Temp. Windchill Dew Point Humidity Pressure Visibility Wind Dir Wind Speed Gust Speed Precip Events Conditions
12:53 AM 44.1 °F 41.5 °F 32.0 °F 63% 30.09 in 10.0 mi Variable 4.6 mph - N/A   Clear
1:53 AM 43.0 °F 41.3 °F 30.9 °F 62% 30.07 in 10.0 mi South 3.5 mph - N/A   Clear
2:53 AM 39.9 °F 37.8 °F 33.1 °F 77% 30.07 in 10.0 mi SE 3.5 mph - N/A   Clear
3:53 AM 39.9 °F - 32.0 °F 73% 30.07 in 10.0 mi North - - N/A   Clear
4:53 AM 37.9 °F 35.5 °F 34.0 °F 86% 30.07 in 10.0 mi East 3.5 mph - N/A   Clear
5:53 AM 34.0 °F - 28.9 °F 82% 30.09 in 10.0 mi Calm Calm - N/A   Clear
6:53 AM 37.9 °F 33.5 °F 34.0 °F 86% 30.08 in 10.0 mi ENE 5.8 mph - N/A   Clear
7:53 AM 45.0 °F 41.8 °F 35.1 °F 68% 30.07 in 10.0 mi ENE 5.8 mph - N/A   Clear
8:53 AM 54.0 °F - 34.0 °F 47% 30.06 in 10.0 mi ENE 12.7 mph - N/A   Clear
9:53 AM 60.1 °F - 39.0 °F 46% 30.05 in 10.0 mi ENE 12.7 mph - N/A   Clear
10:53 AM 66.9 °F - 33.1 °F 28% 30.02 in 10.0 mi East 17.3 mph 21.9 mph N/A   Clear
11:53 AM 68.0 °F - 28.9 °F 23% 30.02 in 10.0 mi East 18.4 mph 25.3 mph N/A   Clear
12:53 PM 68.0 °F - 28.0 °F 22% 30.00 in 10.0 mi East 13.8 mph 24.2 mph N/A   Clear
1:53 PM 70.0 °F - 23.0 °F 17% 29.98 in 10.0 mi East 21.9 mph 26.5 mph N/A   Clear
2:53 PM 70.0 °F - 24.1 °F 18% 29.97 in 10.0 mi East 19.6 mph 26.5 mph N/A   Clear
3:53 PM 70.0 °F - 23.0 °F 17% 29.96 in 10.0 mi East 21.9 mph 31.1 mph N/A   Clear
4:53 PM 69.1 °F - 21.9 °F 17% 29.95 in 10.0 mi East 21.9 mph 26.5 mph N/A   Clear
5:53 PM 69.1 °F - 27.0 °F 21% 29.94 in 10.0 mi East 17.3 mph 25.3 mph N/A   Clear
6:53 PM 68.0 °F - 24.1 °F 19% 29.92 in 10.0 mi ESE 23.0 mph 27.6 mph N/A   Clear
7:53 PM 66.0 °F - 25.0 °F 21% 29.92 in 10.0 mi ESE 20.7 mph - N/A   Clear
8:53 PM 62.1 °F - 28.0 °F 28% 29.92 in 10.0 mi ESE 13.8 mph - N/A   Clear
9:53 PM 57.0 °F - 34.0 °F 42% 29.92 in 10.0 mi ESE 10.4 mph - N/A   Clear
10:53 PM 55.0 °F - 33.1 °F 43% 29.91 in 10.0 mi East 11.5 mph - N/A   Clear
11:53 PM 50.0 °F - 35.1 °F 57% 29.92 in 10.0 mi ESE 5.8 mph - N/A   Clear